Chignik, AK

9:15 PM AKDT on June 23, 2017 (GMT -0800)
Chignik

Weather History for PAJC - January, 2014

Change the Weather History Date:

Monday, January 27, 2014

  Actual Average Record
Temperature  
Mean Temperature 40 °F -  
Max Temperature 42 °F 31 °F 42 °F (2011)
Min Temperature 39 °F 24 °F 3 °F (2012)
Degree Days  
Heating Degree Days 24    
Moisture  
Dew Point 39 °F    
Average Humidity 91    
Maximum Humidity 100    
Minimum Humidity 76    
Precipitation  
Precipitation 0.33 in - - ()
Sea Level Pressure  
Sea Level Pressure 29.15 in    
Wind  
Wind Speed 17 mph (ENE)    
Max Wind Speed 26 mph    
Max Gust Speed 39 mph    
Visibility 6 miles    
Events      
Averages and records for this station are not official NWS values.
T = Trace of Precipitation, MM = Missing Value Source: NWS Daily Summary

Daily Weather History Graph

Daily Weather History Graph

Search for Another Location

Airport or City:

Trip Planner

Search our weather history database for the weather conditions in past years. The results will help you decide how hot, cold, wet, or windy it might be!

Date:

Astronomy

Jan. 27, 2014 Rise Set
Actual Time 9:38 AM AKST 5:55 PM AKST
Civil Twilight 8:55 AM AKST 6:37 PM AKST
Nautical Twilight 8:09 AM AKST 7:23 PM AKST
Astronomical Twilight 7:25 AM AKST 8:07 PM AKST
Moon 6:41 AM AKST (1/27) 2:43 PM AKST (1/27)
Length of Visible Light 9h 41m
Length of Day
8h 16m
Waning Crescent, 13% of the Moon is Illuminated
Jan 27
Waning Crescent
Jan 30
New
Feb 6
First Quarter
Feb 14
Full
Feb 22
Last Quarter

Hourly Weather History & Observations

Time (AKST) Temp. Windchill Dew Point Humidity Pressure Visibility Wind Dir Wind Speed Gust Speed Precip Events Conditions
12:16 AM 41.0 °F 32.5 °F 39.2 °F 93% 29.17 in 8.0 mi ENE 17.3 mph 32.2 mph N/A   Overcast
12:36 AM 41.0 °F 32.5 °F 39.2 °F 93% 29.16 in 7.0 mi ENE 17.3 mph 38.0 mph N/A   Overcast
12:56 AM 41.0 °F 32.2 °F 39.2 °F 93% 29.16 in 7.0 mi NE 18.4 mph 38.0 mph N/A   Overcast
1:16 AM 41.0 °F 33.1 °F 39.2 °F 93% 29.15 in 5.0 mi ENE 15.0 mph 25.3 mph N/A   Overcast
1:36 AM 41.0 °F 32.8 °F 39.2 °F 93% 29.15 in 5.0 mi ENE 16.1 mph 25.3 mph N/A   Overcast
1:56 AM 41.0 °F 32.8 °F 39.2 °F 93% 29.14 in 5.0 mi NE 16.1 mph 27.6 mph N/A   Overcast
2:16 AM 41.0 °F 32.2 °F 39.2 °F 93% 29.13 in 5.0 mi NE 18.4 mph 29.9 mph N/A   Overcast
2:36 AM 41.0 °F 32.8 °F 39.2 °F 93% 29.13 in 6.0 mi NE 16.1 mph 28.8 mph N/A   Overcast
2:56 AM 41.0 °F 33.1 °F 39.2 °F 93% 29.13 in 5.0 mi ENE 15.0 mph 26.5 mph N/A   Overcast
3:16 AM 41.0 °F 32.8 °F 39.2 °F 93% 29.13 in 5.0 mi NE 16.1 mph 25.3 mph N/A   Overcast
3:36 AM 41.0 °F 32.2 °F 39.2 °F 93% 29.12 in 7.0 mi NE 18.4 mph 28.8 mph N/A   Overcast
3:56 AM 41.0 °F 32.8 °F 39.2 °F 93% 29.12 in 5.0 mi NE 16.1 mph 26.5 mph N/A   Overcast
4:16 AM 41.0 °F 31.9 °F 39.2 °F 93% 29.12 in 7.0 mi NE 19.6 mph 31.1 mph N/A   Overcast
4:36 AM 41.0 °F 32.8 °F 39.2 °F 93% 29.11 in 7.0 mi NE 16.1 mph 27.6 mph N/A   Overcast
4:56 AM 41.0 °F 32.5 °F 39.2 °F 93% 29.11 in 7.0 mi NE 17.3 mph 26.5 mph N/A   Overcast
5:16 AM 41.0 °F 33.5 °F 39.2 °F 93% 29.10 in 7.0 mi NE 13.8 mph 23.0 mph N/A   Overcast
5:36 AM 41.0 °F 32.8 °F 39.2 °F 93% 29.10 in 8.0 mi NE 16.1 mph 28.8 mph N/A   Overcast
5:56 AM 41.0 °F 32.8 °F 39.2 °F 93% 29.10 in 3.0 mi NE 16.1 mph 23.0 mph N/A   Overcast
6:16 AM 41.0 °F 33.5 °F 39.2 °F 93% 29.09 in 5.0 mi NE 13.8 mph 24.2 mph N/A   Overcast
6:36 AM 41.0 °F 33.5 °F 39.2 °F 93% 29.09 in 4.0 mi NE 13.8 mph 23.0 mph N/A   Overcast
6:56 AM 41.0 °F 34.7 °F 41.0 °F 100% 29.09 in 2.5 mi NE 10.4 mph 24.2 mph N/A   Overcast
7:16 AM 41.0 °F 33.9 °F 41.0 °F 100% 29.08 in 2.5 mi NE 12.7 mph 20.7 mph N/A   Overcast
7:36 AM 41.0 °F 32.8 °F 39.2 °F 93% 29.08 in 3.0 mi ENE 16.1 mph 25.3 mph 0.03 in   Overcast
7:56 AM 41.0 °F 32.8 °F 41.0 °F 100% 29.07 in 3.0 mi NE 16.1 mph 27.6 mph 0.03 in   Overcast
8:16 AM 41.0 °F 32.8 °F 41.0 °F 100% 29.07 in 4.0 mi NE 16.1 mph 26.5 mph 0.01 in   Overcast
8:36 AM 41.0 °F 32.8 °F 41.0 °F 100% 29.07 in 5.0 mi NE 16.1 mph 27.6 mph 0.01 in   Overcast
8:56 AM 41.0 °F 33.1 °F 41.0 °F 100% 29.06 in 5.0 mi ENE 15.0 mph 24.2 mph N/A   Overcast
9:16 AM 41.0 °F 32.2 °F 39.2 °F 93% 29.06 in 5.0 mi NE 18.4 mph 33.4 mph N/A   Overcast
9:36 AM 41.0 °F 31.1 °F 41.0 °F 100% 29.06 in 6.0 mi ENE 23.0 mph 32.2 mph N/A   Overcast
9:56 AM 41.0 °F 31.9 °F 41.0 °F 100% 29.06 in 7.0 mi ENE 19.6 mph 28.8 mph N/A   Overcast
10:16 AM 41.0 °F 32.2 °F 39.2 °F 93% 29.05 in 6.0 mi ENE 18.4 mph 28.8 mph N/A   Overcast
10:36 AM 41.0 °F 31.9 °F 39.2 °F 93% 29.05 in 5.0 mi ENE 19.6 mph 26.5 mph N/A   Overcast
10:56 AM 41.0 °F 31.9 °F 39.2 °F 93% 29.05 in 5.0 mi NE 19.6 mph 25.3 mph N/A   Overcast
11:16 AM 41.0 °F 33.1 °F 39.2 °F 93% 29.04 in 5.0 mi ENE 15.0 mph 24.2 mph N/A   Overcast
11:36 AM 41.0 °F 33.1 °F 39.2 °F 93% 29.04 in 5.0 mi ENE 15.0 mph 26.5 mph N/A   Overcast
11:56 AM 41.0 °F 32.5 °F 39.2 °F 93% 29.04 in 5.0 mi ENE 17.3 mph 21.9 mph N/A   Overcast
12:16 PM 41.0 °F 33.1 °F 39.2 °F 93% 29.04 in 5.0 mi NE 15.0 mph 25.3 mph N/A   Overcast
12:36 PM 41.0 °F 31.9 °F 39.2 °F 93% 29.03 in 4.0 mi ENE 19.6 mph 28.8 mph N/A   Overcast
12:56 PM 41.0 °F 32.5 °F 39.2 °F 93% 29.02 in 3.0 mi ENE 17.3 mph 26.5 mph N/A   Overcast
1:16 PM 41.0 °F 31.9 °F 39.2 °F 93% 29.01 in 3.0 mi NE 19.6 mph 29.9 mph N/A   Overcast
1:36 PM 41.0 °F 32.5 °F 41.0 °F 100% 29.01 in 2.0 mi NE 17.3 mph 25.3 mph N/A   Overcast
1:56 PM 41.0 °F 33.1 °F 39.2 °F 93% 29.01 in 3.0 mi NE 15.0 mph 25.3 mph N/A   Overcast
2:16 PM 41.0 °F 32.8 °F 41.0 °F 100% 29.01 in 2.5 mi NE 16.1 mph 24.2 mph 0.08 in   Overcast
2:36 PM 41.0 °F 32.5 °F 41.0 °F 100% 29.00 in 3.0 mi East 17.3 mph 23.0 mph 0.14 in   Overcast
2:56 PM 41.0 °F 31.6 °F 41.0 °F 100% 29.02 in 5.0 mi SSE 20.7 mph 27.6 mph 0.18 in   Mostly Cloudy
3:16 PM 41.0 °F 32.2 °F 39.2 °F 93% 29.06 in 4.0 mi SE 18.4 mph 31.1 mph 0.03 in   Overcast
3:36 PM 41.0 °F 31.9 °F 39.2 °F 93% 29.08 in 4.0 mi SSE 19.6 mph 35.7 mph 0.05 in   Overcast
3:56 PM 39.2 °F 32.0 °F 39.2 °F 100% 29.11 in 4.0 mi ESE 11.5 mph 28.8 mph 0.06 in   Overcast
4:16 PM 39.2 °F 31.2 °F 37.4 °F 93% 29.14 in 9.0 mi ESE 13.8 mph 34.5 mph N/A   Overcast
4:36 PM 41.0 °F 32.5 °F 37.4 °F 87% 29.15 in 4.0 mi ESE 17.3 mph 32.2 mph 0.02 in   Overcast
4:56 PM 41.0 °F 33.5 °F 37.4 °F 87% 29.15 in 7.0 mi SE 13.8 mph 26.5 mph 0.02 in   Overcast
5:16 PM 41.0 °F 32.2 °F 37.4 °F 87% 29.17 in 9.0 mi ESE 18.4 mph 31.1 mph N/A   Overcast
5:36 PM 41.0 °F 33.5 °F 37.4 °F 87% 29.18 in 9.0 mi ESE 13.8 mph 29.9 mph 0.01 in   Overcast
5:56 PM 42.8 °F 34.5 °F 37.4 °F 81% 29.20 in 10.0 mi ESE 18.4 mph 32.2 mph 0.01 in   Overcast
6:16 PM 42.8 °F 34.5 °F 37.4 °F 81% 29.21 in 10.0 mi ESE 18.4 mph 36.8 mph N/A   Overcast
6:36 PM 42.8 °F 33.1 °F 37.4 °F 81% 29.22 in 10.0 mi ESE 25.3 mph 33.4 mph N/A   Overcast
6:56 PM 41.0 °F 30.7 °F 37.4 °F 87% 29.24 in 7.0 mi East 25.3 mph 39.1 mph N/A   Overcast
7:16 PM 42.8 °F 33.1 °F 37.4 °F 81% 29.25 in 10.0 mi East 25.3 mph 36.8 mph N/A   Overcast
7:36 PM 42.8 °F 34.0 °F 35.6 °F 76% 29.28 in 10.0 mi ESE 20.7 mph 33.4 mph N/A   Overcast
7:56 PM 42.8 °F 32.9 °F 35.6 °F 76% 29.29 in 9.0 mi ESE 26.5 mph 33.4 mph N/A   Overcast
8:16 PM 42.8 °F 34.0 °F 37.4 °F 81% 29.31 in 10.0 mi East 20.7 mph 31.1 mph N/A   Overcast
8:36 PM 42.8 °F 33.8 °F 35.6 °F 76% 29.32 in 10.0 mi East 21.9 mph 32.2 mph 0.01 in   Overcast
8:56 PM 42.8 °F 35.1 °F 37.4 °F 81% 29.33 in 8.0 mi East 16.1 mph 32.2 mph 0.01 in   Overcast
9:16 PM 42.8 °F 34.3 °F 37.4 °F 81% 29.33 in 10.0 mi East 19.6 mph 32.2 mph N/A   Overcast
9:36 PM 42.8 °F 34.5 °F 37.4 °F 81% 29.34 in 9.0 mi East 18.4 mph 31.1 mph N/A   Overcast
9:56 PM 42.8 °F 35.8 °F 37.4 °F 81% 29.35 in 10.0 mi East 13.8 mph 27.6 mph N/A   Overcast
10:16 PM 41.0 °F 33.9 °F 37.4 °F 87% 29.35 in 8.0 mi East 12.7 mph 29.9 mph N/A   Overcast
10:36 PM 42.8 °F 35.1 °F 37.4 °F 81% 29.36 in 10.0 mi ESE 16.1 mph 35.7 mph 0.01 in   Overcast
10:56 PM 42.8 °F 34.0 °F 37.4 °F 81% 29.37 in 10.0 mi ESE 20.7 mph 32.2 mph 0.01 in   Overcast
11:16 PM 42.8 °F 37.5 °F 35.6 °F 76% 29.37 in 10.0 mi ESE 9.2 mph 28.8 mph N/A   Overcast
11:36 PM 42.8 °F 35.1 °F 35.6 °F 76% 29.37 in 10.0 mi East 16.1 mph 27.6 mph N/A   Overcast
11:56 PM 41.0 °F 33.1 °F 37.4 °F 87% 29.37 in 9.0 mi ENE 15.0 mph 28.8 mph N/A   Overcast